WE3C Weather Reports


Display with metric or nautical units.
time (UTC)temp
F
wind
direction
speed
MPH
gust
MPH
rain 1hr
in
rain 24hr
in
rain mn
in
humidity
%
barometer
mb
20260901014602 68 171 0.0 0.0 0.00 0.00 0.00 81 1023.0
20260901013056 68 171 0.0 0.0 0.00 0.00 0.00 82 1023.1
20260901011600 68 172 0.0 0.0 0.00 0.00 0.00 82 1023.1
20260901010100 68 173 0.0 0.0 0.00 0.00 0.00 82 1023.0
20260901004556 68 173 0.0 0.0 0.00 0.00 0.00 82 1023.0
20260901003059 68 184 0.0 0.0 0.00 0.00 0.00 82 1022.9
20260901001558 68 184 0.0 0.0 0.00 0.00 0.00 82 1022.7
20260901000044 69 184 0.0 0.0 0.00 0.00 0.00 82 1022.6
20260831234543 69 184 0.0 0.0 0.00 0.00 0.00 82 1022.5
20260831233043 70 184 0.0 0.0 0.00 0.00 0.00 82 1022.5
20260831231541 71 184 0.0 0.0 0.00 0.00 0.00 82 1022.5
20260831230039 71 184 0.0 0.0 0.00 0.00 0.00 82 1022.6
20260831224538 71 184 0.0 0.0 0.00 0.00 0.00 82 1022.7
20260831223041 72 184 0.0 0.0 0.00 0.00 0.00 82 1022.9
20260831221541 72 184 0.0 0.0 0.00 0.00 0.00 82 1023.0
20260831220138 72 184 0.0 0.0 0.00 0.00 0.00 82 1023.3
20260831214541 72 184 0.0 0.0 0.00 0.00 0.00 82 1023.3
20260831213040 72 271 0.0 0.0 0.00 0.00 0.00 82 1023.4
20260831211532 72 282 0.0 0.0 0.00 0.00 0.00 81 1023.4
20260831210030 73 282 0.0 0.0 0.00 0.00 0.00 82 1023.5
20260831204529 72 282 0.0 0.0 0.00 0.00 0.00 82 1023.6
20260831203043 72 282 0.0 0.0 0.00 0.00 0.00 81 1023.8
20260831201528 71 282 0.0 0.0 0.00 0.00 0.00 82 1023.8
20260831200036 71 282 0.0 0.0 0.00 0.00 0.00 82 1023.7
20260831194526 71 281 0.0 0.0 0.00 0.00 0.00 82 1023.9
20260831193027 71 283 0.0 0.0 0.00 0.00 0.00 82 1024.1
20260831191526 71 283 0.0 0.0 0.00 0.00 0.00 82 1024.3
20260831190029 72 281 0.0 0.0 0.00 0.00 0.00 82 1024.1
20260831184530 72 281 0.0 0.0 0.00 0.00 0.00 81 1024.7
20260831183026 73 284 0.0 0.0 0.00 0.00 0.00 79 1024.8
20260831181526 73 167 0.0 0.0 0.00 0.00 0.00 79 1024.7
20260831180026 74 166 0.0 0.0 0.00 0.00 0.00 78 1024.5
20260831174524 74 166 0.0 0.0 0.00 0.00 0.00 76 1024.7
20260831173022 75 165 0.0 0.0 0.00 0.00 0.00 75 1024.8
20260831171522 75 165 0.0 0.0 0.00 0.00 0.00 75 1024.5
20260831170032 76 165 0.0 0.0 0.00 0.00 0.00 73 1024.8
20260831164520 76 139 0.0 0.0 0.00 0.00 0.00 73 1024.8
20260831163016 74 139 0.0 0.0 0.00 0.00 0.00 75 1024.8
20260831161515 74 135 0.0 0.0 0.00 0.00 0.00 73 1024.9
20260831160032 74 117 0.0 0.0 0.00 0.00 0.00 74 1024.8
20260831154511 74 120 0.0 0.0 0.00 0.00 0.00 76 1024.8
20260831153018 72 126 0.0 0.0 0.00 0.00 0.00 76 1025.0
20260831151505 71 126 0.0 0.0 0.00 0.00 0.00 78 1025.0
20260831150004 70 126 0.0 0.0 0.00 0.00 0.00 81 1025.0
20260831144504 70 126 0.0 0.0 0.00 0.00 0.00 81 1025.2
20260831143036 70 128 0.0 0.0 0.00 0.00 0.00 81 1025.2
20260831141542 70 128 0.0 0.0 0.00 0.00 0.00 81 1025.1
20260831140026 70 127 0.0 0.0 0.00 0.00 0.00 80 1025.2
20260831134523 70 127 0.0 0.0 0.00 0.00 0.00 81 1025.2
20260831133022 70 126 0.0 0.0 0.00 0.00 0.00 81 1025.1
20260831131527 70 126 0.0 0.0 0.00 0.00 0.00 80 1025.0
20260831130021 69 113 0.0 0.0 0.00 0.00 0.00 81 1025.2
20260831124520 69 123 0.0 0.0 0.00 0.00 0.00 82 1024.9
20260831123037 68 101 0.0 0.0 0.00 0.00 0.00 82 1025.1
20260831121527 68 89 0.0 0.0 0.00 0.00 0.00 83 1025.0
20260831120032 67 81 0.0 0.0 0.00 0.00 0.00 83 1025.0
20260831114520 67 81 0.0 0.0 0.00 0.00 0.00 83 1024.9
20260831113022 67 81 0.0 0.0 0.00 0.00 0.00 83 1024.7
20260831111515 67 81 0.0 0.0 0.00 0.00 0.00 83 1024.6
20260831110011 67 80 0.0 0.0 0.00 0.00 0.00 83 1024.5
20260831104524 67 86 0.0 0.0 0.00 0.00 0.00 83 1024.2
20260831103009 67 76 0.0 0.0 0.00 0.00 0.00 83 1024.2
20260831101518 67 72 0.0 0.0 0.00 0.00 0.00 83 1024.0
20260831100020 67 84 0.0 0.0 0.00 0.00 0.00 83 1024.0
20260831094508 67 63 0.0 0.0 0.00 0.00 0.00 83 1023.9
20260831093007 67 57 0.0 0.0 0.00 0.00 0.00 83 1023.9
20260831091506 67 55 0.0 0.0 0.00 0.00 0.00 83 1023.9
20260831090005 67 78 0.0 0.0 0.00 0.00 0.00 83 1023.9
20260831084504 67 43 0.0 0.0 0.00 0.00 0.00 83 1023.8
20260831083004 68 43 0.0 0.0 0.00 0.00 0.00 82 1023.9
20260831081502 68 34 0.0 0.0 0.00 0.00 0.00 82 1023.8
20260831080058 69 38 0.0 0.0 0.00 0.00 0.00 82 1023.7
20260831074558 69 15 0.0 0.0 0.00 0.00 0.00 81 1023.9
20260831073100 69 349 0.0 0.0 0.00 0.00 0.00 81 1023.8
20260831071600 69 349 0.0 0.0 0.00 0.00 0.00 81 1024.0
20260831070110 70 349 0.0 0.0 0.00 0.00 0.00 81 1023.9
20260831064552 70 349 0.0 0.0 0.00 0.00 0.00 81 1024.0
20260831063052 70 349 0.0 0.0 0.00 0.00 0.00 81 1023.9
20260831061551 70 26 0.0 0.0 0.00 0.00 0.00 81 1024.0
20260831060100 70 26 0.0 0.0 0.00 0.00 0.00 81 1024.1
20260831054549 70 26 0.0 0.0 0.00 0.00 0.00 81 1024.0
20260831053049 71 26 0.0 0.0 0.00 0.00 0.00 81 1023.8
20260831051610 71 26 0.0 0.0 0.00 0.00 0.00 81 1023.8
20260831050049 71 26 0.0 0.0 0.00 0.00 0.00 81 1023.8
20260831044545 71 18 0.0 0.0 0.00 0.00 0.00 81 1024.0
20260831043019 71 11 0.0 0.0 0.00 0.00 0.00 81 1024.0
20260831041619 71 15 0.0 0.0 0.00 0.00 0.00 81 1024.0
20260831040035 71 355 0.0 0.0 0.00 0.00 0.00 81 1024.1
20260831034513 72 355 0.0 0.0 0.00 0.00 0.00 82 1024.2
20260831033013 72 327 0.0 0.0 0.00 0.00 0.00 81 1024.3
20260831031512 72 327 0.0 0.0 0.00 0.00 0.00 82 1024.3
20260831030010 73 340 0.0 0.0 0.00 0.00 0.00 82 1024.3
20260831024509 73 336 0.0 0.0 0.00 0.00 0.00 82 1024.4
20260831023017 73 337 0.0 0.0 0.00 0.00 0.00 82 1024.3
20260831021525 73 337 0.0 0.0 0.00 0.00 0.00 82 1024.4
20260831020007 73 336 0.0 0.0 0.00 0.00 0.00 82 1024.3